EW5975 Weather Reports


Display with metric or nautical units.
time (UTC)temp
F
wind
direction
speed
MPH
gust
MPH
rain 1hr
in
rain 24hr
in
rain mn
in
humidity
%
barometer
mb
20200330141922 55 0.0 1.0 0.18 0.19 0.19 87 1011.4
20200330140921 55 0.0 0.0 0.07 0.08 0.08 86 1011.4
20200330135827 56 0.0 0.0 0.02 0.03 0.03 85 1011.4
20200330134822 56 0.0 1.0 0.01 0.02 0.02 85 1011.5
20200330133821 56 0.0 0.0 0.01 0.02 0.02 84 1011.6
20200330132822 56 270 1.0 2.0 0.00 0.01 0.01 81 1011.6
20200330131821 57 180 1.0 3.0 0.00 0.01 0.01 80 1011.7
20200330130821 57 158 1.0 2.0 0.00 0.01 0.01 78 1011.7
20200330125822 58 158 2.0 4.0 0.00 0.01 0.01 77 1011.7
20200330124821 59 180 1.0 2.0 0.00 0.01 0.01 75 1011.7
20200330123821 59 135 2.0 5.0 0.00 0.01 0.01 74 1011.8
20200330122821 59 248 1.0 1.0 0.00 0.01 0.01 74 1011.9
20200330121727 58 0.0 0.0 0.00 0.01 0.01 76 1011.9
20200330120727 57 0.0 0.0 0.01 0.01 0.01 77 1012.0
20200330115722 56 180 1.0 1.0 0.01 0.01 0.01 78 1012.0
20200330114722 56 0.0 0.0 0.01 0.01 0.01 79 1012.1
20200330113721 56 0.0 1.0 0.01 0.01 0.01 82 1012.2
20200330112721 55 0.0 0.0 0.01 0.01 0.01 83 1012.2
20200330111721 55 0.0 0.0 0.01 0.01 0.01 82 1012.3
20200330110721 55 0.0 0.0 0.00 0.00 0.00 81 1012.4
20200330105722 55 135 1.0 3.0 0.00 0.00 0.00 81 1012.4
20200330104721 55 180 1.0 2.0 0.00 0.00 0.00 79 1012.4
20200330103721 55 0.0 1.0 0.00 0.00 0.00 79 1012.5
20200330102626 55 0.0 0.0 0.00 0.00 0.00 79 1012.5
20200330101526 55 23 1.0 3.0 0.00 0.00 0.00 80 1012.4
20200330100521 55 68 1.0 2.0 0.00 0.00 0.00 81 1012.5
20200330095521 55 0.0 0.0 0.00 0.00 0.00 82 1012.4
20200330094426 54 158 1.0 2.0 0.00 0.00 0.00 84 1012.4
20200330093421 54 0.0 0.0 0.00 0.00 0.00 85 1012.5
20200330092421 53 0.0 0.0 0.00 0.00 0.00 86 1012.5
20200330091421 53 0.0 0.0 0.00 0.00 0.00 87 1012.5
20200330090326 52 0.0 0.0 0.00 0.00 0.00 88 1012.4
20200330085226 52 0.0 0.0 0.00 0.00 0.00 88 1012.3
20200330084226 51 0.0 0.0 0.00 0.00 0.00 88 1012.2
20200330083226 51 0.0 0.0 0.00 0.00 0.00 89 1012.1
20200330082226 51 0.0 0.0 0.00 0.00 0.00 89 1012.0
20200330081221 50 0.0 0.0 0.00 0.00 0.00 90 1011.8
20200330080221 50 0.0 0.0 0.00 0.00 0.00 90 1011.7
20200330075126 50 0.0 0.0 0.00 0.00 0.00 90 1011.6
20200330074121 49 0.0 0.0 0.00 0.00 0.00 89 1011.5
20200330073121 49 0.0 0.0 0.00 0.00 0.00 89 1011.4
20200330072121 49 0.0 0.0 0.00 0.00 0.00 89 1011.2
20200330071121 49 0.0 0.0 0.00 0.00 0.00 90 1011.1
20200330070121 49 0.0 0.0 0.00 0.00 0.00 90 1011.1
20200330065026 49 0.0 0.0 0.00 0.00 0.00 90 1010.9
20200330064021 49 0.0 0.0 0.00 0.00 0.00 90 1010.8
20200330063021 49 0.0 0.0 0.00 0.00 0.00 90 1010.8
20200330062021 49 0.0 0.0 0.00 0.00 0.00 90 1010.8
20200330061021 48 0.0 1.0 0.00 0.00 0.00 90 1010.6
20200330060020 48 0.0 0.0 0.00 0.00 0.00 90 1010.5
20200330055020 48 0.0 0.0 0.00 0.00 0.00 90 1010.5
20200330054020 48 0.0 0.0 0.00 0.00 0.00 90 1010.3
20200330053020 48 0.0 0.0 0.00 0.00 0.00 90 1010.4
20200330052020 48 0.0 0.0 0.00 0.00 0.00 89 1010.3
20200330050927 47 0.0 1.0 0.00 0.00 0.00 89 1010.2
20200330045925 47 0.0 0.0 0.00 0.00 0.00 88 1010.1
20200330044920 47 0.0 1.0 0.00 0.00 0.00 88 1009.9
20200330043920 47 0 1.0 2.0 0.00 0.00 0.00 88 1009.9
20200330042920 47 0.0 0.0 0.00 0.00 0.00 88 1009.8
20200330041920 48 0.0 1.0 0.00 0.00 0.00 88 1009.8
20200330040920 48 0.0 1.0 0.00 0.00 0.00 89 1009.9
20200330035825 48 0.0 1.0 0.00 0.00 0.00 89 1009.9
20200330034825 49 0.0 0.0 0.00 0.00 0.00 90 1010.0
20200330033725 49 0.0 0.0 0.00 0.00 0.00 89 1009.9
20200330032725 49 0.0 0.0 0.00 0.00 0.00 89 1010.0
20200330031625 50 0.0 0.0 0.00 0.00 0.00 89 1010.1
20200330030620 50 0.0 0.0 0.00 0.00 0.00 89 1010.2
20200330025620 50 0.0 0.0 0.00 0.00 0.00 89 1010.2
20200330024620 50 0.0 0.0 0.00 0.00 0.00 89 1010.1
20200330023620 50 0.0 0.0 0.00 0.00 0.00 89 1010.2
20200330022620 50 0.0 0.0 0.00 0.00 0.00 89 1010.2
20200330021620 50 0.0 0.0 0.00 0.00 0.00 89 1010.2
20200330020620 50 0.0 0.0 0.00 0.00 0.00 89 1010.1
20200330015522 50 0.0 0.0 0.00 0.00 0.00 88 1010.2
20200330014522 50 0.0 0.0 0.00 0.00 0.00 88 1010.3
20200330013522 50 0.0 0.0 0.00 0.00 0.00 88 1010.3
20200330012427 50 0.0 0.0 0.00 0.00 0.00 88 1010.5
20200330011422 50 0.0 0.0 0.00 0.00 0.00 88 1010.6
20200330010422 50 0.0 0.0 0.00 0.00 0.00 87 1010.7
20200330005422 50 0.0 0.0 0.00 0.00 0.00 87 1010.6
20200330004421 51 0.0 0.0 0.00 0.00 0.00 87 1010.7
20200330003322 51 0.0 0.0 0.00 0.00 0.00 86 1010.7
20200330002227 51 0.0 0.0 0.00 0.00 0.00 86 1010.8
20200330001222 51 0.0 0.0 0.00 0.00 0.00 86 1010.9